Time,TemperatureF,DewpointF,PressureIn,WindDirection,WindDirectionDegrees,WindSpeedMPH,WindSpeedGustMPH,Humidity,HourlyPrecipIn,Conditions,Clouds,dailyrainin,SoftwareType,DateUTC
2013-11-02 00:01:00,42.7,41.1,29.75,West,260,0.0,0.0,94,0.00,,BKN090,0.00,VWS V14.01,2013-11-02 04:01:00,
2013-11-02 00:06:00,42.7,41.1,29.75,West,260,0.0,0.0,94,0.00,,BKN090,0.00,VWS V14.01,2013-11-02 04:06:00,
2013-11-02 00:11:00,42.7,41.1,29.75,West,260,0.0,0.0,94,0.00,,BKN090,0.00,VWS V14.01,2013-11-02 04:11:00,
2013-11-02 00:16:00,42.7,41.1,29.75,West,260,0.0,0.0,94,0.00,,BKN090,0.00,VWS V14.01,2013-11-02 04:16:00,
2013-11-02 00:21:00,42.7,41.1,29.75,West,260,0.0,0.0,94,0.00,,BKN090,0.00,VWS V14.01,2013-11-02 04:21:00,
2013-11-02 00:26:00,42.6,41.0,29.75,West,260,0.0,0.0,94,0.00,,BKN090,0.00,VWS V14.01,2013-11-02 04:26:00,
2013-11-02 00:31:00,42.6,41.0,29.75,West,260,0.0,0.0,94,0.00,,BKN090,0.00,VWS V14.01,2013-11-02 04:31:00,
2013-11-02 00:36:00,42.5,40.9,29.75,West,260,0.0,0.0,94,0.00,,BKN090,0.00,VWS V14.01,2013-11-02 04:36:00,
2013-11-02 00:41:00,42.5,40.9,29.75,West,260,0.0,0.0,94,0.00,,BKN090,0.00,VWS V14.01,2013-11-02 04:41:00,
2013-11-02 00:46:00,42.6,41.0,29.74,West,260,0.0,0.0,94,0.00,,BKN090,0.00,VWS V14.01,2013-11-02 04:46:00,
2013-11-02 00:51:00,42.7,41.4,29.74,West,260,0.0,0.0,95,0.00,,BKN090,0.00,VWS V14.01,2013-11-02 04:51:00,
2013-11-02 00:56:00,42.8,41.5,29.74,West,260,0.0,0.0,95,0.00,,BKN090,0.00,VWS V14.01,2013-11-02 04:56:00,
2013-11-02 01:01:00,42.9,41.6,29.74,West,260,0.0,0.0,95,0.00,,OVC095,0.00,VWS V14.01,2013-11-02 05:01:00,
2013-11-02 01:06:00,43.0,41.7,29.73,West,260,0.0,0.0,95,0.00,,OVC095,0.00,VWS V14.01,2013-11-02 05:06:00,
2013-11-02 01:11:00,43.1,41.8,29.74,West,260,0.0,0.0,95,0.00,,OVC095,0.00,VWS V14.01,2013-11-02 05:11:00,
2013-11-02 01:16:00,43.2,42.1,29.74,West,260,0.0,0.0,96,0.00,,OVC095,0.00,VWS V14.01,2013-11-02 05:16:00,
2013-11-02 01:21:00,43.4,42.3,29.73,West,260,0.0,0.0,96,0.00,,OVC095,0.00,VWS V14.01,2013-11-02 05:21:00,
2013-11-02 01:26:00,43.6,42.5,29.73,West,260,0.0,0.0,96,0.00,,OVC095,0.00,VWS V14.01,2013-11-02 05:26:00,
2013-11-02 01:31:00,43.7,42.6,29.73,West,260,0.0,0.0,96,0.00,,OVC095,0.00,VWS V14.01,2013-11-02 05:31:00,
2013-11-02 01:36:00,43.9,42.8,29.73,West,260,0.0,0.0,96,0.00,,OVC095,0.00,VWS V14.01,2013-11-02 05:36:00,
2013-11-02 01:41:00,43.9,42.8,29.73,West,260,0.0,0.0,96,0.00,,OVC095,0.00,VWS V14.01,2013-11-02 05:41:00,
2013-11-02 01:46:00,43.9,42.8,29.73,West,260,0.0,0.0,96,0.00,,OVC095,0.00,VWS V14.01,2013-11-02 05:46:00,
2013-11-02 01:51:00,43.8,42.7,29.73,West,260,0.0,0.0,96,0.00,,OVC095,0.00,VWS V14.01,2013-11-02 05:51:00,
2013-11-02 01:56:00,43.8,42.7,29.73,West,260,0.0,0.0,96,0.00,,OVC095,0.00,VWS V14.01,2013-11-02 05:56:00,
2013-11-02 02:01:00,43.8,42.7,29.73,West,260,0.0,0.0,96,0.00,,BKN100,0.00,VWS V14.01,2013-11-02 06:01:00,
2013-11-02 02:06:00,43.8,42.7,29.74,West,260,0.0,0.0,96,0.00,,BKN100,0.00,VWS V14.01,2013-11-02 06:06:00,
2013-11-02 02:11:00,43.8,42.7,29.73,West,260,0.0,0.0,96,0.00,,BKN100,0.00,VWS V14.01,2013-11-02 06:11:00,
2013-11-02 02:16:00,43.9,42.8,29.73,West,260,0.0,0.0,96,0.00,,BKN100,0.00,VWS V14.01,2013-11-02 06:16:00,
2013-11-02 02:21:00,44.0,42.9,29.73,West,260,0.0,0.0,96,0.00,,BKN100,0.00,VWS V14.01,2013-11-02 06:21:00,
2013-11-02 02:26:00,44.0,42.9,29.73,West,260,0.0,0.0,96,0.00,,BKN100,0.00,VWS V14.01,2013-11-02 06:26:00,
2013-11-02 02:31:00,44.2,43.1,29.73,West,260,0.0,0.0,96,0.00,,BKN100,0.00,VWS V14.01,2013-11-02 06:31:00,
2013-11-02 02:36:00,44.2,43.1,29.73,West,260,0.0,0.0,96,0.00,,BKN100,0.00,VWS V14.01,2013-11-02 06:36:00,
2013-11-02 02:41:00,44.3,43.2,29.73,West,260,0.0,0.0,96,0.00,,BKN100,0.00,VWS V14.01,2013-11-02 06:41:00,
2013-11-02 02:46:00,44.4,43.3,29.73,West,260,0.0,0.0,96,0.00,,BKN100,0.00,VWS V14.01,2013-11-02 06:46:00,
2013-11-02 02:51:00,44.5,43.4,29.73,West,260,0.0,0.0,96,0.00,,BKN100,0.00,VWS V14.01,2013-11-02 06:51:00,
2013-11-02 02:56:00,44.6,43.5,29.73,West,260,0.0,0.0,96,0.00,,BKN100,0.00,VWS V14.01,2013-11-02 06:56:00,
2013-11-02 03:01:00,44.7,43.6,29.73,West,260,0.0,0.0,96,0.00,,OVC100,0.00,VWS V14.01,2013-11-02 07:01:00,
2013-11-02 03:06:00,44.8,43.7,29.73,West,260,0.0,0.0,96,0.00,,OVC100,0.00,VWS V14.01,2013-11-02 07:06:00,
2013-11-02 03:12:00,44.8,43.7,29.73,West,260,0.0,0.0,96,0.00,,OVC100,0.00,VWS V14.01,2013-11-02 07:12:00,
2013-11-02 03:17:00,44.8,43.7,29.72,West,260,0.0,0.0,96,0.00,,OVC100,0.00,VWS V14.01,2013-11-02 07:17:00,
2013-11-02 03:22:00,44.8,43.7,29.72,West,260,0.0,0.0,96,0.00,,OVC100,0.00,VWS V14.01,2013-11-02 07:22:00,
2013-11-02 03:26:00,44.8,43.7,29.72,West,260,0.0,0.0,96,0.00,,OVC100,0.00,VWS V14.01,2013-11-02 07:26:00,
2013-11-02 03:32:00,44.8,43.7,29.71,West,260,0.0,0.0,96,0.00,,OVC100,0.00,VWS V14.01,2013-11-02 07:32:00,
2013-11-02 03:37:00,44.7,43.6,29.72,West,260,0.0,0.0,96,0.00,,OVC100,0.00,VWS V14.01,2013-11-02 07:37:00,
2013-11-02 03:42:00,44.6,43.5,29.71,West,260,0.0,0.0,96,0.00,,OVC100,0.00,VWS V14.01,2013-11-02 07:42:00,
2013-11-02 03:47:00,44.4,43.3,29.71,West,260,0.0,0.0,96,0.00,,OVC100,0.00,VWS V14.01,2013-11-02 07:47:00,
2013-11-02 03:52:00,44.3,43.2,29.71,West,260,0.0,0.0,96,0.00,,OVC100,0.00,VWS V14.01,2013-11-02 07:52:00,
2013-11-02 03:57:00,44.0,42.9,29.72,West,260,0.0,0.0,96,0.00,,OVC100,0.00,VWS V14.01,2013-11-02 07:57:00,
2013-11-02 04:02:00,43.8,42.7,29.72,West,260,0.0,0.0,96,0.00,,OVC100,0.00,VWS V14.01,2013-11-02 08:02:00,
2013-11-02 04:07:00,43.5,42.2,29.72,West,260,0.0,0.0,95,0.00,,OVC100,0.00,VWS V14.01,2013-11-02 08:07:00,
2013-11-02 04:12:00,43.3,42.0,29.72,West,260,0.0,0.0,95,0.00,,OVC100,0.00,VWS V14.01,2013-11-02 08:12:00,
2013-11-02 04:17:00,43.1,41.8,29.72,West,260,0.0,0.0,95,0.00,,OVC100,0.00,VWS V14.01,2013-11-02 08:17:00,
2013-11-02 04:22:00,42.9,41.6,29.72,West,260,0.0,0.0,95,0.00,,OVC100,0.00,VWS V14.01,2013-11-02 08:22:00,
2013-11-02 04:27:00,42.8,41.7,29.72,West,260,0.0,0.0,96,0.00,,OVC100,0.00,VWS V14.01,2013-11-02 08:27:00,
2013-11-02 04:32:00,42.7,41.6,29.72,West,260,0.0,0.0,96,0.00,,OVC100,0.00,VWS V14.01,2013-11-02 08:32:00,
2013-11-02 04:37:00,42.6,41.5,29.72,West,260,0.0,0.0,96,0.00,,OVC100,0.00,VWS V14.01,2013-11-02 08:37:00,
2013-11-02 04:42:00,42.5,41.4,29.72,West,260,0.0,0.0,96,0.00,,OVC100,0.00,VWS V14.01,2013-11-02 08:42:00,
2013-11-02 04:47:00,42.3,41.2,29.72,West,260,0.0,0.0,96,0.00,,OVC100,0.00,VWS V14.01,2013-11-02 08:47:00,
2013-11-02 04:52:00,42.1,41.0,29.72,West,260,0.0,0.0,96,0.00,,OVC100,0.00,VWS V14.01,2013-11-02 08:52:00,
2013-11-02 04:57:00,41.9,40.8,29.72,West,260,0.0,0.0,96,0.00,,OVC100,0.00,VWS V14.01,2013-11-02 08:57:00,
2013-11-02 05:02:00,41.8,40.8,29.72,West,260,0.0,0.0,96,0.00,,SCT100,0.00,VWS V14.01,2013-11-02 09:02:00,
2013-11-02 05:07:00,41.7,40.7,29.72,West,260,0.0,0.0,96,0.00,,SCT100,0.00,VWS V14.01,2013-11-02 09:07:00,
2013-11-02 05:12:00,41.5,40.5,29.72,West,260,0.0,0.0,96,0.00,,SCT100,0.00,VWS V14.01,2013-11-02 09:12:00,
2013-11-02 05:17:00,41.2,40.2,29.73,West,260,0.0,0.0,96,0.00,,SCT100,0.00,VWS V14.01,2013-11-02 09:17:00,
2013-11-02 05:22:00,41.0,39.7,29.72,West,260,0.0,0.0,95,0.00,,SCT100,0.00,VWS V14.01,2013-11-02 09:22:00,
2013-11-02 05:27:00,40.8,39.5,29.72,West,260,0.0,0.0,95,0.00,,SCT100,0.00,VWS V14.01,2013-11-02 09:27:00,
2013-11-02 05:32:00,40.7,39.7,29.72,West,260,0.0,0.0,96,0.00,,SCT100,0.00,VWS V14.01,2013-11-02 09:32:00,
2013-11-02 05:37:00,40.6,39.5,29.72,West,260,0.0,0.0,96,0.00,,SCT100,0.00,VWS V14.01,2013-11-02 09:37:00,
2013-11-02 05:42:00,40.5,39.5,29.72,West,260,0.0,0.0,96,0.00,,SCT100,0.00,VWS V14.01,2013-11-02 09:42:00,
2013-11-02 05:47:00,40.4,39.3,29.73,West,260,0.0,1.0,96,0.00,,SCT100,0.00,VWS V14.01,2013-11-02 09:47:00,
2013-11-02 05:52:00,40.3,39.2,29.73,West,260,0.0,1.0,96,0.00,,SCT100,0.00,VWS V14.01,2013-11-02 09:52:00,
2013-11-02 05:57:00,40.2,39.2,29.74,West,260,0.0,1.0,96,0.00,,SCT100,0.00,VWS V14.01,2013-11-02 09:57:00,
2013-11-02 06:02:00,40.1,39.0,29.73,West,260,0.0,0.0,96,0.00,,OVC095,0.00,VWS V14.01,2013-11-02 10:02:00,
2013-11-02 06:07:00,40.1,39.0,29.73,West,260,0.0,0.0,96,0.00,,OVC095,0.00,VWS V14.01,2013-11-02 10:07:00,
2013-11-02 06:12:00,40.0,39.2,29.73,West,260,0.0,0.0,97,0.00,,OVC095,0.00,VWS V14.01,2013-11-02 10:12:00,
2013-11-02 06:17:00,39.9,38.8,29.73,West,260,0.0,0.0,96,0.00,,OVC095,0.00,VWS V14.01,2013-11-02 10:17:00,
2013-11-02 06:22:00,40.1,39.3,29.74,West,260,0.0,0.0,97,0.00,,OVC095,0.00,VWS V14.01,2013-11-02 10:22:00,
2013-11-02 06:27:00,40.1,39.3,29.73,West,260,0.0,0.0,97,0.00,,OVC095,0.00,VWS V14.01,2013-11-02 10:27:00,
2013-11-02 06:32:00,40.1,39.3,29.73,West,260,0.0,0.0,97,0.00,,OVC095,0.00,VWS V14.01,2013-11-02 10:32:00,
2013-11-02 06:37:00,40.1,39.3,29.74,West,260,0.0,1.0,97,0.00,,OVC095,0.00,VWS V14.01,2013-11-02 10:37:00,
2013-11-02 06:42:00,40.2,39.4,29.73,West,260,0.0,1.0,97,0.00,,OVC095,0.00,VWS V14.01,2013-11-02 10:42:00,
2013-11-02 06:47:00,40.1,39.3,29.74,West,260,0.0,1.0,97,0.00,,OVC095,0.00,VWS V14.01,2013-11-02 10:47:00,
2013-11-02 06:52:00,40.1,39.3,29.74,West,260,0.0,1.0,97,0.00,,OVC095,0.00,VWS V14.01,2013-11-02 10:52:00,
2013-11-02 06:57:00,40.1,39.3,29.74,West,260,0.0,1.0,97,0.00,,OVC095,0.00,VWS V14.01,2013-11-02 10:57:00,
2013-11-02 07:02:00,40.2,39.4,29.74,West,260,0.0,0.0,97,0.00,,,0.00,VWS V14.01,2013-11-02 11:02:00,
2013-11-02 07:07:00,40.2,39.4,29.74,West,260,0.0,0.0,97,0.00,,,0.00,VWS V14.01,2013-11-02 11:07:00,
2013-11-02 07:12:00,40.2,39.4,29.74,West,260,0.0,0.0,97,0.00,,,0.00,VWS V14.01,2013-11-02 11:12:00,
2013-11-02 07:17:00,40.1,39.3,29.74,West,260,0.0,0.0,97,0.00,,,0.00,VWS V14.01,2013-11-02 11:17:00,
2013-11-02 07:22:00,39.9,39.1,29.74,West,260,0.0,0.0,97,0.00,,,0.00,VWS V14.01,2013-11-02 11:22:00,
2013-11-02 07:27:00,39.8,39.0,29.74,West,260,0.0,0.0,97,0.00,,,0.00,VWS V14.01,2013-11-02 11:27:00,
2013-11-02 07:32:00,39.7,38.9,29.74,West,260,0.0,0.0,97,0.00,,,0.00,VWS V14.01,2013-11-02 11:32:00,
2013-11-02 07:37:00,39.6,38.8,29.74,West,260,0.0,0.0,97,0.00,,,0.00,VWS V14.01,2013-11-02 11:37:00,
2013-11-02 07:42:00,39.5,38.7,29.74,West,260,0.0,0.0,97,0.00,,,0.00,VWS V14.01,2013-11-02 11:42:00,
2013-11-02 07:47:00,39.4,38.6,29.74,West,260,0.0,0.0,97,0.00,,,0.00,VWS V14.01,2013-11-02 11:47:00,
2013-11-02 07:52:00,39.2,38.4,29.74,West,260,0.0,0.0,97,0.00,,,0.00,VWS V14.01,2013-11-02 11:52:00,
2013-11-02 07:57:00,39.1,38.3,29.74,West,260,0.0,0.0,97,0.00,,,0.00,VWS V14.01,2013-11-02 11:57:00,
2013-11-02 08:02:00,39.0,38.2,29.74,West,260,0.0,0.0,97,0.00,,,0.00,VWS V14.01,2013-11-02 12:02:00,
2013-11-02 08:07:00,39.0,38.2,29.74,West,260,0.0,0.0,97,0.00,,,0.00,VWS V14.01,2013-11-02 12:07:00,
2013-11-02 08:12:00,39.1,38.6,29.75,West,260,0.0,0.0,98,0.00,,,0.00,VWS V14.01,2013-11-02 12:12:00,
2013-11-02 08:17:00,39.1,38.6,29.75,West,260,0.0,0.0,98,0.00,,,0.00,VWS V14.01,2013-11-02 12:17:00,
2013-11-02 08:22:00,39.2,38.7,29.75,West,260,0.0,0.0,98,0.00,,,0.00,VWS V14.01,2013-11-02 12:22:00,
2013-11-02 08:27:00,39.4,38.9,29.75,West,260,0.0,0.0,98,0.00,,,0.00,VWS V14.01,2013-11-02 12:27:00,
2013-11-02 08:32:00,39.6,39.1,29.75,West,260,0.0,0.0,98,0.00,,,0.00,VWS V14.01,2013-11-02 12:32:00,
2013-11-02 08:37:00,40.0,39.5,29.75,West,260,0.0,1.0,98,0.00,,,0.00,VWS V14.01,2013-11-02 12:37:00,
2013-11-02 08:42:00,40.6,40.3,29.76,West,260,0.0,1.0,99,0.00,,,0.00,VWS V14.01,2013-11-02 12:42:00,
2013-11-02 08:47:00,41.0,40.7,29.76,West,260,0.0,1.0,99,0.00,,,0.00,VWS V14.01,2013-11-02 12:47:00,
2013-11-02 08:52:00,41.5,41.2,29.76,West,260,2.0,2.0,99,0.00,,,0.00,VWS V14.01,2013-11-02 12:52:00,
2013-11-02 08:57:00,42.0,41.7,29.76,West,260,1.0,2.0,99,0.00,,,0.00,VWS V14.01,2013-11-02 12:57:00,
2013-11-02 09:02:00,42.3,42.0,29.76,West,260,0.0,0.0,99,0.00,,,0.00,VWS V14.01,2013-11-02 13:02:00,
2013-11-02 09:07:00,42.7,42.4,29.76,West,260,0.0,0.0,99,0.00,,,0.00,VWS V14.01,2013-11-02 13:07:00,
2013-11-02 09:12:00,43.2,43.2,29.76,West,259,3.0,3.0,100,0.00,,,0.00,VWS V14.01,2013-11-02 13:12:00,
2013-11-02 09:17:00,43.6,43.6,29.77,West,259,1.0,4.0,100,0.00,,,0.00,VWS V14.01,2013-11-02 13:17:00,
2013-11-02 09:22:00,44.1,44.1,29.77,West,260,0.0,6.0,100,0.00,,,0.00,VWS V14.01,2013-11-02 13:22:00,
2013-11-02 09:27:00,44.4,44.1,29.77,SW,235,3.0,6.0,99,0.00,,,0.00,VWS V14.01,2013-11-02 13:27:00,
2013-11-02 09:32:00,44.7,44.4,29.77,WSW,237,1.0,3.0,99,0.00,,,0.00,VWS V14.01,2013-11-02 13:32:00,
2013-11-02 09:37:00,45.2,44.9,29.77,WSW,242,1.0,5.0,99,0.00,,,0.00,VWS V14.01,2013-11-02 13:37:00,
2013-11-02 09:42:00,45.6,45.3,29.76,WSW,242,2.0,5.0,99,0.00,,,0.00,VWS V14.01,2013-11-02 13:42:00,
2013-11-02 09:47:00,46.1,46.1,29.76,WSW,241,1.0,5.0,100,0.00,,,0.00,VWS V14.01,2013-11-02 13:47:00,
2013-11-02 09:52:00,46.5,46.2,29.76,WSW,239,0.0,5.0,99,0.00,,,0.00,VWS V14.01,2013-11-02 13:52:00,
2013-11-02 09:57:00,47.1,46.8,29.76,WSW,239,0.0,5.0,99,0.00,,,0.00,VWS V14.01,2013-11-02 13:57:00,
2013-11-02 10:02:00,47.6,47.3,29.75,WSW,239,1.0,2.0,99,0.00,,OVC100,0.00,VWS V14.01,2013-11-02 14:02:00,
2013-11-02 10:07:00,48.2,47.9,29.77,WSW,238,0.0,2.0,99,0.00,,OVC100,0.00,VWS V14.01,2013-11-02 14:07:00,
2013-11-02 10:12:00,48.3,47.8,29.76,WSW,238,1.0,3.0,98,0.00,,OVC100,0.00,VWS V14.01,2013-11-02 14:12:00,
2013-11-02 10:17:00,48.5,48.0,29.76,SW,228,3.0,5.0,98,0.00,,OVC100,0.00,VWS V14.01,2013-11-02 14:17:00,
2013-11-02 10:22:00,48.6,47.8,29.76,SW,216,0.0,5.0,97,0.00,,OVC100,0.00,VWS V14.01,2013-11-02 14:22:00,
2013-11-02 10:27:00,48.8,47.4,29.76,SW,216,2.0,5.0,95,0.00,,OVC100,0.00,VWS V14.01,2013-11-02 14:27:00,
2013-11-02 10:32:00,48.9,47.2,29.76,SW,231,2.0,4.0,94,0.00,,OVC100,0.00,VWS V14.01,2013-11-02 14:32:00,
2013-11-02 10:37:00,49.1,47.5,29.76,SW,231,1.0,4.0,94,0.00,,OVC100,0.00,VWS V14.01,2013-11-02 14:37:00,
2013-11-02 10:42:00,49.3,47.7,29.76,SSW,194,2.0,4.0,94,0.00,,OVC100,0.00,VWS V14.01,2013-11-02 14:42:00,
2013-11-02 10:47:00,49.4,47.5,29.75,SSW,193,3.0,5.0,93,0.00,,OVC100,0.00,VWS V14.01,2013-11-02 14:47:00,
2013-11-02 10:52:00,49.5,47.3,29.76,SSW,193,0.0,5.0,92,0.00,,OVC100,0.00,VWS V14.01,2013-11-02 14:52:00,
2013-11-02 10:57:00,49.5,47.0,29.76,SSW,193,2.0,5.0,91,0.00,,OVC100,0.00,VWS V14.01,2013-11-02 14:57:00,
2013-11-02 11:02:00,49.6,47.1,29.76,SSW,193,0.0,0.0,91,0.00,,OVC046,0.00,VWS V14.01,2013-11-02 15:02:00,
2013-11-02 11:07:00,49.7,46.9,29.75,SSW,193,0.0,1.0,90,0.00,,OVC046,0.00,VWS V14.01,2013-11-02 15:07:00,
2013-11-02 11:12:00,49.8,46.7,29.76,SSW,193,0.0,1.0,89,0.00,,OVC046,0.00,VWS V14.01,2013-11-02 15:12:00,
2013-11-02 11:17:00,50.0,46.9,29.75,SSW,193,0.0,1.0,89,0.00,,OVC046,0.00,VWS V14.01,2013-11-02 15:17:00,
2013-11-02 11:22:00,50.1,46.7,29.75,SSW,193,0.0,1.0,88,0.00,,OVC046,0.00,VWS V14.01,2013-11-02 15:22:00,
2013-11-02 11:27:00,50.2,46.5,29.76,SSW,193,2.0,4.0,87,0.00,,OVC046,0.00,VWS V14.01,2013-11-02 15:27:00,
2013-11-02 11:32:00,50.3,46.9,29.75,SSW,193,0.0,0.0,88,0.00,,OVC046,0.00,VWS V14.01,2013-11-02 15:32:00,
2013-11-02 11:37:00,50.4,46.7,29.76,SSW,193,0.0,2.0,87,0.00,,OVC046,0.00,VWS V14.01,2013-11-02 15:37:00,
2013-11-02 11:42:00,50.4,46.7,29.76,SSW,193,0.0,3.0,87,0.00,,OVC046,0.00,VWS V14.01,2013-11-02 15:42:00,
2013-11-02 11:47:00,50.4,46.7,29.76,WSW,246,1.0,4.0,87,0.00,,OVC046,0.00,VWS V14.01,2013-11-02 15:47:00,
2013-11-02 11:52:00,50.4,47.0,29.76,WSW,246,0.0,4.0,88,0.00,,OVC046,0.00,VWS V14.01,2013-11-02 15:52:00,
2013-11-02 11:57:00,50.6,47.5,29.76,WSW,246,0.0,4.0,89,0.00,,OVC046,0.00,VWS V14.01,2013-11-02 15:57:00,
2013-11-02 12:02:00,50.9,47.8,29.76,WSW,245,0.0,0.0,89,0.00,,OVC060,0.00,VWS V14.01,2013-11-02 16:02:00,
2013-11-02 12:07:00,51.3,48.2,29.76,WSW,245,3.0,3.0,89,0.00,,OVC060,0.00,VWS V14.01,2013-11-02 16:07:00,
2013-11-02 12:12:00,51.8,48.7,29.76,SW,228,2.0,4.0,89,0.00,,OVC060,0.00,VWS V14.01,2013-11-02 16:12:00,
2013-11-02 12:17:00,52.1,48.7,29.76,SW,215,2.0,6.0,88,0.00,,OVC060,0.00,VWS V14.01,2013-11-02 16:17:00,
2013-11-02 12:22:00,52.3,48.5,29.76,SSW,207,1.0,6.0,87,0.00,,OVC060,0.00,VWS V14.01,2013-11-02 16:22:00,
2013-11-02 12:27:00,52.5,48.4,29.76,SSW,207,0.0,6.0,86,0.00,,OVC060,0.00,VWS V14.01,2013-11-02 16:27:00,
2013-11-02 12:32:00,52.4,48.3,29.75,SSW,207,0.0,2.0,86,0.00,,OVC060,0.00,VWS V14.01,2013-11-02 16:32:00,
2013-11-02 12:37:00,52.5,48.1,29.75,SSW,207,0.0,2.0,85,0.00,,OVC060,0.00,VWS V14.01,2013-11-02 16:37:00,
2013-11-02 12:42:00,52.5,48.1,29.75,SSW,207,0.0,2.0,85,0.00,,OVC060,0.00,VWS V14.01,2013-11-02 16:42:00,
2013-11-02 12:47:00,52.6,47.9,29.75,SW,236,3.0,4.0,84,0.00,,OVC060,0.00,VWS V14.01,2013-11-02 16:47:00,
2013-11-02 12:52:00,52.8,48.1,29.75,WSW,238,3.0,5.0,84,0.00,,OVC060,0.00,VWS V14.01,2013-11-02 16:52:00,
2013-11-02 12:57:00,53.0,48.3,29.75,WNW,282,1.0,5.0,84,0.00,,OVC060,0.00,VWS V14.01,2013-11-02 16:57:00,
2013-11-02 13:02:00,53.5,48.8,29.76,WNW,287,1.0,1.0,84,0.00,,SCT085,0.00,VWS V14.01,2013-11-02 17:02:00,
2013-11-02 13:07:00,54.0,48.3,29.76,South,169,6.0,6.0,81,0.00,,SCT085,0.00,VWS V14.01,2013-11-02 17:07:00,
2013-11-02 13:12:00,54.5,48.5,29.76,WSW,240,0.0,7.0,80,0.00,,SCT085,0.00,VWS V14.01,2013-11-02 17:12:00,
2013-11-02 13:17:00,54.8,48.4,29.76,West,273,0.0,7.0,79,0.00,,SCT085,0.00,VWS V14.01,2013-11-02 17:17:00,
2013-11-02 13:22:00,55.3,49.6,29.75,SSW,196,0.0,7.0,81,0.00,,SCT085,0.00,VWS V14.01,2013-11-02 17:22:00,
2013-11-02 13:27:00,55.7,49.3,29.75,SSW,196,2.0,7.0,79,0.00,,SCT085,0.00,VWS V14.01,2013-11-02 17:27:00,
2013-11-02 13:32:00,56.1,49.7,29.75,SSW,196,0.0,1.0,79,0.00,,SCT085,0.00,VWS V14.01,2013-11-02 17:32:00,
2013-11-02 13:37:00,56.5,49.7,29.75,SSW,196,0.0,4.0,78,0.00,,SCT085,0.00,VWS V14.01,2013-11-02 17:37:00,
2013-11-02 13:42:00,57.1,49.6,29.75,SW,227,0.0,5.0,76,0.00,,SCT085,0.00,VWS V14.01,2013-11-02 17:42:00,
2013-11-02 13:47:00,57.4,48.5,29.75,WSW,248,2.0,5.0,72,0.00,,SCT085,0.00,VWS V14.01,2013-11-02 17:47:00,
2013-11-02 13:52:00,57.7,49.1,29.75,SW,227,2.0,5.0,73,0.00,,SCT085,0.00,VWS V14.01,2013-11-02 17:52:00,
2013-11-02 13:57:00,58.1,48.8,29.73,SW,218,2.0,5.0,71,0.00,,SCT085,0.00,VWS V14.01,2013-11-02 17:57:00,
2013-11-02 14:02:00,58.2,48.8,29.74,SW,218,1.0,3.0,71,0.00,,OVC070,0.00,VWS V14.01,2013-11-02 18:02:00,
2013-11-02 14:07:00,58.1,48.4,29.75,NNE,19,1.0,5.0,70,0.00,,OVC070,0.00,VWS V14.01,2013-11-02 18:07:00,
2013-11-02 14:12:00,57.9,48.6,29.74,NNE,19,0.0,5.0,71,0.00,,OVC070,0.00,VWS V14.01,2013-11-02 18:12:00,
2013-11-02 14:17:00,57.7,48.0,29.75,NNE,19,0.0,5.0,70,0.00,,OVC070,0.00,VWS V14.01,2013-11-02 18:17:00,
2013-11-02 14:22:00,57.6,48.7,29.75,NNE,19,0.0,5.0,72,0.00,,OVC070,0.00,VWS V14.01,2013-11-02 18:22:00,
2013-11-02 14:27:00,57.4,48.5,29.75,NNE,19,0.0,5.0,72,0.00,,OVC070,0.00,VWS V14.01,2013-11-02 18:27:00,
2013-11-02 14:32:00,57.2,47.9,29.74,NNE,19,0.0,2.0,71,0.00,,OVC070,0.00,VWS V14.01,2013-11-02 18:32:00,
2013-11-02 14:37:00,57.1,48.2,29.74,NNE,19,0.0,2.0,72,0.00,,OVC070,0.00,VWS V14.01,2013-11-02 18:37:00,
2013-11-02 14:42:00,57.0,47.3,29.75,WNW,293,2.0,3.0,70,0.00,,OVC070,0.00,VWS V14.01,2013-11-02 18:42:00,
2013-11-02 14:47:00,57.1,47.4,29.74,West,261,2.0,4.0,70,0.00,,OVC070,0.00,VWS V14.01,2013-11-02 18:47:00,
2013-11-02 14:52:00,57.1,47.4,29.75,West,261,1.0,4.0,70,0.00,,OVC070,0.00,VWS V14.01,2013-11-02 18:52:00,
2013-11-02 14:57:00,57.2,47.9,29.74,West,264,0.0,4.0,71,0.00,,OVC070,0.00,VWS V14.01,2013-11-02 18:57:00,
2013-11-02 15:02:00,57.3,47.6,29.74,West,261,2.0,2.0,70,0.00,,-RA,0.00,VWS V14.01,2013-11-02 19:02:00,
2013-11-02 15:07:00,57.5,47.0,29.74,West,274,2.0,4.0,68,0.00,,-RA,0.00,VWS V14.01,2013-11-02 19:07:00,
2013-11-02 15:12:00,57.6,46.7,29.74,WNW,287,0.0,5.0,67,0.00,,-RA,0.00,VWS V14.01,2013-11-02 19:12:00,
2013-11-02 15:17:00,57.7,47.2,29.75,WSW,241,3.0,5.0,68,0.00,,-RA,0.00,VWS V14.01,2013-11-02 19:17:00,
2013-11-02 15:22:00,57.7,46.8,29.75,West,274,2.0,5.0,67,0.00,,-RA,0.00,VWS V14.01,2013-11-02 19:22:00,
2013-11-02 15:27:00,57.7,47.2,29.74,WSW,250,3.0,5.0,68,0.00,,-RA,0.00,VWS V14.01,2013-11-02 19:27:00,
2013-11-02 15:32:00,57.7,46.8,29.75,WSW,247,1.0,7.0,67,0.00,,-RA,0.00,VWS V14.01,2013-11-02 19:32:00,
2013-11-02 15:37:00,57.6,46.7,29.75,WSW,247,0.0,7.0,67,0.00,,-RA,0.00,VWS V14.01,2013-11-02 19:37:00,
2013-11-02 15:42:00,57.6,46.3,29.75,WSW,258,3.0,7.0,66,0.00,,-RA,0.00,VWS V14.01,2013-11-02 19:42:00,
2013-11-02 15:47:00,57.6,45.9,29.75,WSW,243,1.0,7.0,65,0.00,,-RA,0.00,VWS V14.01,2013-11-02 19:47:00,
2013-11-02 15:52:00,57.6,45.9,29.75,West,268,3.0,7.0,65,0.00,,-RA,0.00,VWS V14.01,2013-11-02 19:52:00,
2013-11-02 15:57:00,57.5,45.4,29.75,West,260,0.0,7.0,64,0.00,,-RA,0.00,VWS V14.01,2013-11-02 19:57:00,
2013-11-02 16:02:00,57.5,45.8,29.75,WSW,258,2.0,6.0,65,0.00,,OVC080,0.00,VWS V14.01,2013-11-02 20:02:00,
2013-11-02 16:07:00,57.4,46.2,29.75,NNW,342,0.0,6.0,66,0.00,,OVC080,0.00,VWS V14.01,2013-11-02 20:07:00,
2013-11-02 16:12:00,57.4,46.5,29.76,NNW,339,0.0,6.0,67,0.00,,OVC080,0.00,VWS V14.01,2013-11-02 20:12:00,
2013-11-02 16:17:00,57.3,46.5,29.75,NNW,337,0.0,6.0,67,0.00,,OVC080,0.00,VWS V14.01,2013-11-02 20:17:00,
2013-11-02 16:22:00,57.3,46.0,29.76,NW,312,0.0,6.0,66,0.00,,OVC080,0.00,VWS V14.01,2013-11-02 20:22:00,
2013-11-02 16:27:00,57.2,46.4,29.75,NW,313,0.0,6.0,67,0.00,,OVC080,0.00,VWS V14.01,2013-11-02 20:27:00,
2013-11-02 16:32:00,57.1,46.3,29.75,NW,311,2.0,5.0,67,0.00,,OVC080,0.00,VWS V14.01,2013-11-02 20:32:00,
2013-11-02 16:37:00,57.0,46.6,29.75,NW,312,0.0,5.0,68,0.00,,OVC080,0.00,VWS V14.01,2013-11-02 20:37:00,
2013-11-02 16:42:00,56.9,46.1,29.75,WNW,289,2.0,5.0,67,0.00,,OVC080,0.00,VWS V14.01,2013-11-02 20:42:00,
2013-11-02 16:47:00,56.8,46.0,29.76,WNW,299,0.0,5.0,67,0.00,,OVC080,0.00,VWS V14.01,2013-11-02 20:47:00,
2013-11-02 16:52:00,56.7,45.9,29.75,WNW,300,1.0,5.0,67,0.00,,OVC080,0.00,VWS V14.01,2013-11-02 20:52:00,
2013-11-02 16:58:00,56.6,46.2,29.76,WNW,299,0.0,5.0,68,0.00,,OVC080,0.00,VWS V14.01,2013-11-02 20:58:00,
2013-11-02 17:03:00,56.4,46.0,29.76,WNW,299,2.0,2.0,68,0.00,,OVC090,0.00,VWS V14.01,2013-11-02 21:03:00,
2013-11-02 17:08:00,56.3,45.5,29.76,West,272,0.0,4.0,67,0.00,,OVC090,0.00,VWS V14.01,2013-11-02 21:08:00,
2013-11-02 17:13:00,56.2,45.0,29.76,West,264,2.0,7.0,66,0.00,,OVC090,0.00,VWS V14.01,2013-11-02 21:13:00,
2013-11-02 17:18:00,56.0,44.4,29.76,West,264,0.0,7.0,65,0.00,,OVC090,0.00,VWS V14.01,2013-11-02 21:18:00,
2013-11-02 17:23:00,55.9,44.7,29.77,West,274,1.0,7.0,66,0.00,,OVC090,0.00,VWS V14.01,2013-11-02 21:23:00,
2013-11-02 17:28:00,55.8,44.6,29.77,West,276,2.0,7.0,66,0.00,,OVC090,0.00,VWS V14.01,2013-11-02 21:28:00,
2013-11-02 17:33:00,55.6,44.4,29.77,West,267,0.0,3.0,66,0.00,,OVC090,0.00,VWS V14.01,2013-11-02 21:33:00,
2013-11-02 17:38:00,55.5,44.7,29.77,West,263,0.0,4.0,67,0.00,,OVC090,0.00,VWS V14.01,2013-11-02 21:38:00,
2013-11-02 17:43:00,55.3,44.2,29.78,West,264,0.0,4.0,66,0.00,,OVC090,0.00,VWS V14.01,2013-11-02 21:43:00,
2013-11-02 17:48:00,55.2,44.0,29.78,West,268,3.0,6.0,66,0.00,,OVC090,0.00,VWS V14.01,2013-11-02 21:48:00,
2013-11-02 17:53:00,55.1,44.0,29.78,SW,233,1.0,6.0,66,0.00,,OVC090,0.00,VWS V14.01,2013-11-02 21:53:00,
2013-11-02 17:58:00,55.0,43.9,29.79,SW,233,0.0,6.0,66,0.00,,OVC090,0.00,VWS V14.01,2013-11-02 21:58:00,
2013-11-02 18:03:00,54.7,43.6,29.79,West,266,2.0,3.0,66,0.00,,OVC090,0.00,VWS V14.01,2013-11-02 22:03:00,
2013-11-02 18:08:00,54.6,43.5,29.79,WSW,255,3.0,4.0,66,0.00,,OVC090,0.00,VWS V14.01,2013-11-02 22:08:00,
2013-11-02 18:13:00,54.4,43.3,29.79,West,277,0.0,5.0,66,0.00,,OVC090,0.00,VWS V14.01,2013-11-02 22:13:00,
2013-11-02 18:18:00,54.3,43.6,29.79,WSW,254,2.0,5.0,67,0.00,,OVC090,0.00,VWS V14.01,2013-11-02 22:18:00,
2013-11-02 18:23:00,54.1,43.4,29.79,SW,215,1.0,5.0,67,0.00,,OVC090,0.00,VWS V14.01,2013-11-02 22:23:00,
2013-11-02 18:28:00,53.9,43.2,29.80,SW,215,0.0,5.0,67,0.00,,OVC090,0.00,VWS V14.01,2013-11-02 22:28:00,
2013-11-02 18:33:00,53.7,43.4,29.80,SW,215,0.0,3.0,68,0.00,,OVC090,0.00,VWS V14.01,2013-11-02 22:33:00,
2013-11-02 18:38:00,53.5,43.2,29.80,SW,216,2.0,3.0,68,0.00,,OVC090,0.00,VWS V14.01,2013-11-02 22:38:00,
2013-11-02 18:43:00,53.4,43.5,29.80,WSW,248,0.0,4.0,69,0.00,,OVC090,0.00,VWS V14.01,2013-11-02 22:43:00,
2013-11-02 18:48:00,53.1,44.0,29.81,WSW,248,0.0,4.0,71,0.00,,OVC090,0.00,VWS V14.01,2013-11-02 22:48:00,
2013-11-02 18:53:00,52.6,43.5,29.81,WSW,249,1.0,4.0,71,0.00,,OVC090,0.00,VWS V14.01,2013-11-02 22:53:00,
2013-11-02 18:58:00,52.2,43.5,29.81,WSW,249,2.0,4.0,72,0.00,,OVC090,0.00,VWS V14.01,2013-11-02 22:58:00,
2013-11-02 19:03:00,51.9,43.2,29.81,WSW,249,0.0,0.0,72,0.00,,OVC100,0.00,VWS V14.01,2013-11-02 23:03:00,
2013-11-02 19:08:00,51.5,42.8,29.82,WSW,249,0.0,0.0,72,0.00,,OVC100,0.00,VWS V14.01,2013-11-02 23:08:00,
2013-11-02 19:13:00,51.2,42.5,29.82,WSW,249,0.0,2.0,72,0.00,,OVC100,0.00,VWS V14.01,2013-11-02 23:13:00,
2013-11-02 19:18:00,50.9,42.6,29.83,WSW,249,0.0,2.0,73,0.00,,OVC100,0.00,VWS V14.01,2013-11-02 23:18:00,
2013-11-02 19:23:00,50.6,42.6,29.82,WSW,249,0.0,2.0,74,0.00,,OVC100,0.00,VWS V14.01,2013-11-02 23:23:00,
2013-11-02 19:28:00,50.3,42.7,29.83,WSW,249,0.0,2.0,75,0.00,,OVC100,0.00,VWS V14.01,2013-11-02 23:28:00,
2013-11-02 19:33:00,50.0,42.7,29.83,WSW,249,0.0,0.0,76,0.00,,OVC100,0.00,VWS V14.01,2013-11-02 23:33:00,
2013-11-02 19:38:00,49.7,42.5,29.83,WSW,249,0.0,0.0,76,0.00,,OVC100,0.00,VWS V14.01,2013-11-02 23:38:00,
2013-11-02 19:43:00,49.5,42.6,29.83,WSW,249,0.0,0.0,77,0.00,,OVC100,0.00,VWS V14.01,2013-11-02 23:43:00,
2013-11-02 19:48:00,49.3,42.4,29.83,WSW,249,0.0,0.0,77,0.00,,OVC100,0.00,VWS V14.01,2013-11-02 23:48:00,
2013-11-02 19:53:00,49.1,42.5,29.84,WSW,249,0.0,0.0,78,0.00,,OVC100,0.00,VWS V14.01,2013-11-02 23:53:00,
2013-11-02 19:58:00,49.0,42.5,29.83,WSW,249,0.0,0.0,78,0.00,,OVC100,0.00,VWS V14.01,2013-11-02 23:58:00,
2013-11-02 20:03:00,49.0,42.5,29.84,WSW,249,0.0,0.0,78,0.00,,OVC100,0.00,VWS V14.01,2013-11-03 00:03:00,
2013-11-02 20:08:00,48.9,42.7,29.84,WSW,249,0.0,0.0,79,0.00,,OVC100,0.00,VWS V14.01,2013-11-03 00:08:00,
2013-11-02 20:13:00,48.8,42.6,29.84,WSW,249,0.0,0.0,79,0.00,,OVC100,0.00,VWS V14.01,2013-11-03 00:13:00,
2013-11-02 20:18:00,48.8,42.6,29.84,WSW,249,0.0,0.0,79,0.00,,OVC100,0.00,VWS V14.01,2013-11-03 00:18:00,
2013-11-02 20:23:00,48.7,42.8,29.84,WSW,249,0.0,0.0,80,0.00,,OVC100,0.00,VWS V14.01,2013-11-03 00:23:00,
2013-11-02 20:28:00,48.5,42.6,29.84,WSW,249,0.0,2.0,80,0.00,,OVC100,0.00,VWS V14.01,2013-11-03 00:28:00,
2013-11-02 20:33:00,48.3,42.4,29.84,SW,236,0.0,0.0,80,0.00,,OVC100,0.00,VWS V14.01,2013-11-03 00:33:00,
2013-11-02 20:38:00,48.1,42.2,29.85,WSW,238,0.0,0.0,80,0.00,,OVC100,0.00,VWS V14.01,2013-11-03 00:38:00,
2013-11-02 20:43:00,47.9,42.0,29.85,SW,235,0.0,0.0,80,0.00,,OVC100,0.00,VWS V14.01,2013-11-03 00:43:00,
2013-11-02 20:48:00,47.7,42.2,29.85,WSW,239,0.0,0.0,81,0.00,,OVC100,0.00,VWS V14.01,2013-11-03 00:48:00,
2013-11-02 20:53:00,47.6,42.1,29.85,WSW,238,0.0,0.0,81,0.00,,OVC100,0.00,VWS V14.01,2013-11-03 00:53:00,
2013-11-02 20:58:00,47.4,41.9,29.85,WSW,238,0.0,0.0,81,0.00,,OVC100,0.00,VWS V14.01,2013-11-03 00:58:00,
2013-11-02 21:03:00,47.3,42.1,29.85,WSW,238,0.0,0.0,82,0.00,,OVC120,0.00,VWS V14.01,2013-11-03 01:03:00,
2013-11-02 21:08:00,47.2,42.0,29.86,WSW,239,0.0,0.0,82,0.00,,OVC120,0.00,VWS V14.01,2013-11-03 01:08:00,
2013-11-02 21:13:00,47.1,41.9,29.86,WSW,244,0.0,1.0,82,0.00,,OVC120,0.00,VWS V14.01,2013-11-03 01:13:00,
2013-11-02 21:18:00,47.1,41.9,29.86,WSW,247,0.0,1.0,82,0.00,,OVC120,0.00,VWS V14.01,2013-11-03 01:18:00,
2013-11-02 21:23:00,47.1,42.2,29.86,WSW,246,0.0,1.0,83,0.00,,OVC120,0.00,VWS V14.01,2013-11-03 01:23:00,
2013-11-02 21:28:00,46.9,42.0,29.86,WSW,241,0.0,1.0,83,0.00,,OVC120,0.00,VWS V14.01,2013-11-03 01:28:00,
2013-11-02 21:33:00,46.8,42.2,29.86,WSW,246,0.0,0.0,84,0.00,,OVC120,0.00,VWS V14.01,2013-11-03 01:33:00,
2013-11-02 21:38:00,46.6,42.0,29.86,WSW,248,0.0,0.0,84,0.00,,OVC120,0.00,VWS V14.01,2013-11-03 01:38:00,
2013-11-02 21:43:00,46.4,41.8,29.86,WSW,248,0.0,1.0,84,0.00,,OVC120,0.00,VWS V14.01,2013-11-03 01:43:00,
2013-11-02 21:48:00,46.1,41.8,29.86,WSW,249,0.0,1.0,85,0.00,,OVC120,0.00,VWS V14.01,2013-11-03 01:48:00,
2013-11-02 21:53:00,45.9,41.7,29.86,WSW,249,0.0,1.0,85,0.00,,OVC120,0.00,VWS V14.01,2013-11-03 01:53:00,
2013-11-02 21:58:00,45.6,41.4,29.86,WSW,249,0.0,1.0,85,0.00,,OVC120,0.00,VWS V14.01,2013-11-03 01:58:00,
2013-11-02 22:03:00,45.3,41.1,29.86,WSW,249,0.0,0.0,85,0.00,,OVC100,0.00,VWS V14.01,2013-11-03 02:03:00,
2013-11-02 22:08:00,45.0,41.1,29.87,WSW,249,0.0,0.0,86,0.00,,OVC100,0.00,VWS V14.01,2013-11-03 02:08:00,
2013-11-02 22:13:00,44.6,40.4,29.87,WSW,242,0.0,0.0,85,0.00,,OVC100,0.00,VWS V14.01,2013-11-03 02:13:00,
2013-11-02 22:18:00,44.3,40.4,29.86,WSW,245,0.0,0.0,86,0.00,,OVC100,0.00,VWS V14.01,2013-11-03 02:18:00,
2013-11-02 22:23:00,44.0,40.1,29.87,WSW,243,0.0,0.0,86,0.00,,OVC100,0.00,VWS V14.01,2013-11-03 02:23:00,
2013-11-02 22:28:00,43.7,40.1,29.86,WSW,248,0.0,0.0,87,0.00,,OVC100,0.00,VWS V14.01,2013-11-03 02:28:00,
2013-11-02 22:33:00,43.4,39.8,29.87,WSW,248,0.0,0.0,87,0.00,,OVC100,0.00,VWS V14.01,2013-11-03 02:33:00,
2013-11-02 22:38:00,43.0,39.4,29.87,WSW,248,0.0,0.0,87,0.00,,OVC100,0.00,VWS V14.01,2013-11-03 02:38:00,
2013-11-02 22:43:00,42.8,39.2,29.87,WSW,248,0.0,0.0,87,0.00,,OVC100,0.00,VWS V14.01,2013-11-03 02:43:00,
2013-11-02 22:48:00,42.5,39.2,29.88,WSW,247,0.0,0.0,88,0.00,,OVC100,0.00,VWS V14.01,2013-11-03 02:48:00,
2013-11-02 22:53:00,42.3,39.3,29.87,WSW,247,0.0,0.0,89,0.00,,OVC100,0.00,VWS V14.01,2013-11-03 02:53:00,
2013-11-02 22:58:00,42.1,39.1,29.88,WSW,247,0.0,0.0,89,0.00,,OVC100,0.00,VWS V14.01,2013-11-03 02:58:00,
2013-11-02 23:03:00,42.0,39.0,29.88,WSW,247,0.0,0.0,89,0.00,,CLR,0.00,VWS V14.01,2013-11-03 03:03:00,
2013-11-02 23:08:00,41.9,38.9,29.88,WSW,247,0.0,0.0,89,0.00,,CLR,0.00,VWS V14.01,2013-11-03 03:08:00,
2013-11-02 23:13:00,42.0,39.6,29.88,WSW,247,0.0,1.0,91,0.00,,CLR,0.00,VWS V14.01,2013-11-03 03:13:00,
2013-11-02 23:18:00,42.1,39.7,29.88,WSW,248,0.0,1.0,91,0.00,,CLR,0.00,VWS V14.01,2013-11-03 03:18:00,
2013-11-02 23:24:00,42.3,39.9,29.88,WSW,249,0.0,1.0,91,0.00,,CLR,0.00,VWS V14.01,2013-11-03 03:24:00,
2013-11-02 23:29:00,42.5,40.1,29.89,WSW,249,0.0,1.0,91,0.00,,CLR,0.00,VWS V14.01,2013-11-03 03:29:00,
2013-11-02 23:34:00,42.7,40.5,29.89,WSW,249,0.0,0.0,92,0.00,,CLR,0.00,VWS V14.01,2013-11-03 03:34:00,
2013-11-02 23:39:00,42.9,40.7,29.89,WSW,249,0.0,0.0,92,0.00,,CLR,0.00,VWS V14.01,2013-11-03 03:39:00,
2013-11-02 23:44:00,43.1,40.9,29.89,WSW,249,0.0,0.0,92,0.00,,CLR,0.00,VWS V14.01,2013-11-03 03:44:00,
2013-11-02 23:49:00,43.6,41.7,29.89,WSW,249,0.0,1.0,93,0.00,,CLR,0.00,VWS V14.01,2013-11-03 03:49:00,
2013-11-02 23:54:00,44.2,42.3,29.89,WSW,249,1.0,3.0,93,0.00,,CLR,0.00,VWS V14.01,2013-11-03 03:54:00,
2013-11-02 23:59:00,44.7,42.5,29.89,WSW,249,0.0,3.0,92,0.00,,CLR,0.00,VWS V14.01,2013-11-03 03:59:00,